Flag for Germany Past Weather in Georgsmarienhütte, Lower Saxony, Germany — Yesterday and Last 2 Weeks

Now
57 °F

Clear.


Feels Like: 57 °F
Forecast: 59 / 70 °F
Wind: 2 mph from Northeast

Location: Muenster / Osnabrueck

Current Time: May 28, 2016 at 2:16:02 AM

Latest Report: May 28, 2016 at 1:20 AM


Visibility: 10 mi

Pressure: 29.98 "Hg

Humidity: 88%

Dew Point: 54 °F

Location of GeorgsmarienhütteLocation

Past Weather in Georgsmarienhütte — Graph

°F

Georgsmarienhütte Temperature Yesterday

Maximum temperature yesterday: 70 °F (at 6:20 PM)
Minimum temperature yesterday: 52 °F (at 4:20 AM)
Average temperature yesterday: 60 °F

High & Low Weather Summary for the Past Weeks

 TemperatureHumidityPressure
High75 °F (May 21, 3:20 PM)100% (May 19, 6:20 AM)30.09 "Hg (May 19, 6:20 AM)
Low36 °F (May 16, 3:50 AM)23% (May 13, 2:20 PM)29.56 "Hg (May 13, 1:20 AM)
Average56 °F72%29.92 "Hg
* Reported May 13 1:20 AM — May 28 1:20 AM, Georgsmarienhütte, Weather by CustomWeather, © 2016

Note: Actual official high and low records may vary slightly from our data, if they occured in-between our weather recording intervals... More about our weather records

Advertising

Georgsmarienhütte Weather History for the Previous 24 Hours

Scroll right to see more
 ConditionsComfort  
Time TempWeatherWind HumidityBarometerVisibility
1:20 AM
Sat, May 28
57 °FClear.2 mph88%29.98 "Hg10 mi
12:50 AM57 °FClear.1 mph88%29.98 "Hg10 mi
12:20 AM57 °FClear.2 mph88%29.98 "Hg10 mi
11:50 PM
Fri, May 27
57 °FClear.2 mph88%29.98 "Hg10 mi
11:20 PM59 °FClear.2 mph82%30.01 "Hg10 mi
10:50 PM59 °FClear.2 mph82%30.01 "Hg10 mi
10:20 PM61 °FSunny.2 mph77%30.01 "Hg10 mi
9:50 PM63 °FScattered clouds.3 mph73%30.01 "HgN/A
9:20 PM64 °FPartly sunny.3 mph68%29.98 "HgN/A
8:50 PM66 °FPartly sunny.3 mph64%29.98 "HgN/A
8:20 PM66 °FPartly sunny.6 mph64%29.98 "HgN/A
7:50 PM66 °FPartly sunny.7 mph64%29.98 "HgN/A
7:20 PM68 °FScattered clouds.8 mph64%29.98 "HgN/A
6:50 PM70 °FPassing clouds.7 mph60%29.98 "HgN/A
6:20 PM70 °FScattered clouds.8 mph60%29.98 "HgN/A
5:50 PM68 °FPartly sunny.8 mph64%29.98 "HgN/A
5:20 PM68 °FPartly sunny.8 mph64%29.98 "HgN/A
4:50 PM66 °FPartly sunny.7 mph68%30.01 "HgN/A
4:20 PM66 °FBroken clouds.9 mph68%30.01 "HgN/A
3:50 PM66 °FPartly sunny.9 mph68%30.01 "Hg5 mi
3:20 PM66 °FPartly sunny.8 mph68%30.01 "Hg5 mi
2:50 PM64 °FPartly sunny.8 mph73%30.01 "Hg5 mi
2:20 PM64 °FPartly sunny.9 mph73%30.01 "Hg5 mi
1:50 PM64 °FPartly sunny.9 mph73%30.01 "Hg5 mi
1:20 PM63 °FPartly sunny.10 mph73%30.01 "Hg5 mi
12:50 PM61 °FBroken clouds.12 mph77%30.01 "Hg6 mi
12:20 PM61 °FPartly sunny.9 mph77%30.01 "Hg5 mi
11:50 AM61 °FPartly sunny.9 mph77%30.01 "Hg6 mi
11:20 AM63 °FPartly sunny.10 mph73%30.01 "Hg6 mi
10:50 AM61 °FPartly sunny.8 mph77%30.01 "HgN/A
10:20 AM61 °FBroken clouds.9 mph77%30.01 "Hg6 mi
9:50 AM59 °FPartly sunny.7 mph82%30.01 "Hg6 mi
9:20 AM59 °FPartly sunny.8 mph82%30.01 "Hg4 mi
8:50 AM57 °FClear.8 mph88%30.01 "Hg4 mi
8:20 AM57 °FClear.7 mph82%30.01 "Hg4 mi
7:50 AM55 °FClear.7 mph88%30.01 "Hg5 mi
7:20 AM55 °FClear.6 mph88%30.01 "Hg4 mi
6:50 AM55 °FClear.5 mph88%30.01 "Hg4 mi
6:20 AM54 °FClear.6 mph88%30.01 "Hg4 mi
5:50 AM52 °FClear.5 mph94%30.01 "Hg4 mi
5:20 AM52 °FClear.3 mph94%30.01 "Hg5 mi
4:50 AM54 °FClear.6 mph88%30.01 "Hg5 mi
4:20 AM52 °FClear.5 mph94%30.01 "Hg5 mi
3:50 AM54 °FClear.5 mph88%30.01 "Hg5 mi
3:20 AM54 °FClear.6 mph88%30.01 "Hg5 mi
2:50 AM54 °FClear.6 mph88%30.01 "Hg5 mi
2:20 AM55 °FClear.6 mph82%30.01 "Hg6 mi
Weather by CustomWeather, © 2016

See weather overviewHow to use our weather pages